Time,TemperatureF,DewpointF,PressureIn,WindDirection,WindDirectionDegrees,WindSpeedMPH,WindSpeedGustMPH,Humidity,HourlyPrecipIn,Conditions,Clouds,dailyrainin,SoftwareType,DateUTC
2013-04-04 00:05:00,41.1,24.3,30.15,East,93,0.0,0.0,51,0.00,,,0.00,Wunderground v.1.15,2013-04-04 05:05:00,
2013-04-04 00:15:00,40.9,24.1,30.15,East,93,0.0,0.0,51,0.00,,,0.00,Wunderground v.1.15,2013-04-04 05:15:00,
2013-04-04 00:25:00,41.2,24.4,30.14,East,93,0.0,0.0,51,0.00,,,0.00,Wunderground v.1.15,2013-04-04 05:25:00,
2013-04-04 00:35:00,41.2,24.9,30.14,East,93,0.0,0.0,52,0.00,,,0.00,Wunderground v.1.15,2013-04-04 05:35:00,
2013-04-04 00:40:00,40.6,25.2,30.14,East,93,0.0,0.0,54,0.00,,,0.00,Wunderground v.1.15,2013-04-04 05:40:00,
2013-04-04 00:50:00,39.5,24.7,30.14,East,93,0.0,0.0,55,0.00,,,0.00,Wunderground v.1.15,2013-04-04 05:50:00,
2013-04-04 01:00:00,39.9,24.1,30.14,ESE,110,0.0,0.0,53,0.00,,,0.00,Wunderground v.1.15,2013-04-04 06:00:00,
2013-04-04 01:10:00,40.1,23.9,30.14,ESE,110,0.0,0.0,52,0.00,,,0.00,Wunderground v.1.15,2013-04-04 06:10:00,
2013-04-04 01:20:00,39.9,23.7,30.14,ESE,110,0.0,0.0,52,0.00,,,0.00,Wunderground v.1.15,2013-04-04 06:20:00,
2013-04-04 01:30:00,39.6,23.4,30.14,ESE,110,0.0,0.0,52,0.00,,,0.00,Wunderground v.1.15,2013-04-04 06:30:00,
2013-04-04 01:35:00,39.5,23.3,30.13,ESE,110,0.0,0.0,52,0.00,,,0.00,Wunderground v.1.15,2013-04-04 06:35:00,
2013-04-04 01:45:00,38.6,23.4,30.13,ESE,110,0.0,0.0,54,0.00,,,0.00,Wunderground v.1.15,2013-04-04 06:45:00,
2013-04-04 01:55:00,38.6,22.9,30.13,ESE,110,0.0,0.0,53,0.00,,,0.00,Wunderground v.1.15,2013-04-04 06:55:00,
2013-04-04 02:05:00,38.8,23.1,30.13,ESE,110,0.0,0.0,53,0.00,,,0.00,Wunderground v.1.15,2013-04-04 07:05:00,
2013-04-04 02:15:00,39.1,22.5,30.13,ESE,113,0.0,0.0,51,0.00,,,0.00,Wunderground v.1.15,2013-04-04 07:15:00,
2013-04-04 02:20:00,39.2,22.6,30.12,ESE,113,0.0,0.0,51,0.00,,,0.00,Wunderground v.1.15,2013-04-04 07:20:00,
2013-04-04 02:30:00,39.1,22.5,30.12,ESE,114,0.0,0.0,51,0.00,,,0.00,Wunderground v.1.15,2013-04-04 07:30:00,
2013-04-04 02:40:00,39.1,22.5,30.12,ESE,113,0.0,0.0,51,0.00,,,0.00,Wunderground v.1.15,2013-04-04 07:40:00,
2013-04-04 02:45:00,38.6,22.5,30.12,ESE,113,0.0,0.0,52,0.00,,,0.00,Wunderground v.1.15,2013-04-04 07:45:00,
2013-04-04 02:55:00,37.8,22.6,30.11,ESE,113,0.0,0.0,54,0.00,,,0.00,Wunderground v.1.15,2013-04-04 07:55:00,
2013-04-04 03:05:00,36.6,21.9,30.11,ESE,113,0.0,0.0,55,0.00,,,0.00,Wunderground v.1.15,2013-04-04 08:05:00,
2013-04-04 03:15:00,35.9,21.3,30.11,ESE,113,0.0,0.0,55,0.00,,,0.00,Wunderground v.1.15,2013-04-04 08:15:00,
2013-04-04 03:20:00,35.9,20.9,30.11,ESE,113,0.0,0.0,54,0.00,,,0.00,Wunderground v.1.15,2013-04-04 08:20:00,
2013-04-04 03:30:00,36.2,20.7,30.11,ESE,113,0.0,0.0,53,0.00,,,0.00,Wunderground v.1.15,2013-04-04 08:30:00,
2013-04-04 03:40:00,36.0,20.5,30.11,ESE,113,0.0,0.0,53,0.00,,,0.00,Wunderground v.1.15,2013-04-04 08:40:00,
2013-04-04 03:45:00,35.9,20.4,30.11,ESE,113,0.0,0.0,53,0.00,,,0.00,Wunderground v.1.15,2013-04-04 08:45:00,
2013-04-04 03:55:00,35.8,20.3,30.11,ESE,113,0.0,0.0,53,0.00,,,0.00,Wunderground v.1.15,2013-04-04 08:55:00,
2013-04-04 04:05:00,35.8,20.3,30.11,ESE,113,0.0,0.0,53,0.00,,,0.00,Wunderground v.1.15,2013-04-04 09:05:00,
2013-04-04 04:10:00,36.0,20.5,30.11,ESE,113,0.0,0.0,53,0.00,,,0.00,Wunderground v.1.15,2013-04-04 09:10:00,
2013-04-04 04:20:00,35.9,20.4,30.11,ESE,113,0.0,0.0,53,0.00,,,0.00,Wunderground v.1.15,2013-04-04 09:20:00,
2013-04-04 04:30:00,36.0,20.5,30.11,ESE,113,0.0,0.0,53,0.00,,,0.00,Wunderground v.1.15,2013-04-04 09:30:00,
2013-04-04 04:35:00,35.9,20.4,30.11,ESE,113,0.0,0.0,53,0.00,,,0.00,Wunderground v.1.15,2013-04-04 09:35:00,
2013-04-04 04:40:00,36.0,20.5,30.11,ESE,113,0.0,0.0,53,0.00,,,0.00,Wunderground v.1.15,2013-04-04 09:40:00,
2013-04-04 04:50:00,35.8,20.8,30.11,ESE,113,0.0,0.0,54,0.00,,,0.00,Wunderground v.1.15,2013-04-04 09:50:00,
2013-04-04 05:00:00,35.5,20.9,30.11,ESE,113,0.0,0.0,55,0.00,,,0.00,Wunderground v.1.15,2013-04-04 10:00:00,
2013-04-04 05:05:00,35.2,21.1,30.11,ESE,113,0.0,0.0,56,0.00,,,0.00,Wunderground v.1.15,2013-04-04 10:05:00,
2013-04-04 05:15:00,35.0,21.3,30.11,ESE,113,0.0,0.0,57,0.00,,,0.00,Wunderground v.1.15,2013-04-04 10:15:00,
2013-04-04 05:25:00,34.0,21.2,30.11,West,268,0.0,0.0,59,0.00,,,0.00,Wunderground v.1.15,2013-04-04 10:25:00,
2013-04-04 05:30:00,33.7,21.3,30.11,West,268,0.0,0.0,60,0.00,,,0.00,Wunderground v.1.15,2013-04-04 10:30:00,
2013-04-04 05:40:00,33.4,21.8,30.10,West,265,0.0,0.0,62,0.00,,,0.00,Wunderground v.1.15,2013-04-04 10:40:00,
2013-04-04 05:50:00,33.8,21.4,30.10,West,265,0.0,0.0,60,0.00,,,0.00,Wunderground v.1.15,2013-04-04 10:50:00,
2013-04-04 05:55:00,34.0,21.6,30.10,West,265,0.0,0.0,60,0.00,,,0.00,Wunderground v.1.15,2013-04-04 10:55:00,
2013-04-04 06:05:00,34.3,21.4,30.10,West,267,0.0,0.0,59,0.00,,,0.00,Wunderground v.1.15,2013-04-04 11:05:00,
2013-04-04 06:15:00,34.1,21.3,30.10,West,267,0.0,0.0,59,0.00,,,0.00,Wunderground v.1.15,2013-04-04 11:15:00,
2013-04-04 06:20:00,34.6,21.3,30.11,West,267,0.0,0.0,58,0.00,,,0.00,Wunderground v.1.15,2013-04-04 11:20:00,
2013-04-04 06:25:00,34.6,21.3,30.11,West,267,0.0,0.0,58,0.00,,,0.00,Wunderground v.1.15,2013-04-04 11:25:00,
2013-04-04 06:35:00,34.4,21.5,30.11,West,267,0.0,0.0,59,0.00,,,0.00,Wunderground v.1.15,2013-04-04 11:35:00,
2013-04-04 06:45:00,34.7,21.8,30.11,West,267,0.0,0.0,59,0.00,,,0.00,Wunderground v.1.15,2013-04-04 11:45:00,
2013-04-04 06:50:00,35.0,22.1,30.11,West,267,0.0,0.0,59,0.00,,,0.00,Wunderground v.1.15,2013-04-04 11:50:00,
2013-04-04 07:00:00,34.4,21.5,30.11,West,267,0.0,0.0,59,0.00,,,0.00,Wunderground v.1.15,2013-04-04 12:00:00,
2013-04-04 07:05:00,34.3,21.8,30.11,West,268,0.0,0.0,60,0.00,,,0.00,Wunderground v.1.15,2013-04-04 12:05:00,
2013-04-04 07:15:00,34.1,22.0,30.11,West,268,0.0,0.0,61,0.00,,,0.00,Wunderground v.1.15,2013-04-04 12:15:00,
2013-04-04 07:25:00,34.4,21.9,30.11,West,268,0.0,0.0,60,0.00,,,0.00,Wunderground v.1.15,2013-04-04 12:25:00,
2013-04-04 07:35:00,34.4,22.3,30.11,West,268,0.0,0.0,61,0.00,,,0.00,Wunderground v.1.15,2013-04-04 12:35:00,
2013-04-04 07:45:00,34.6,22.5,30.11,West,268,0.0,0.0,61,0.00,,,0.00,Wunderground v.1.15,2013-04-04 12:45:00,
2013-04-04 07:55:00,35.3,23.2,30.10,West,268,0.0,0.0,61,0.00,,,0.00,Wunderground v.1.15,2013-04-04 12:55:00,
2013-04-04 08:00:00,35.5,23.4,30.10,West,272,0.0,0.0,61,0.00,,,0.00,Wunderground v.1.15,2013-04-04 13:00:00,
2013-04-04 08:10:00,35.8,24.4,30.11,NW,313,0.0,0.0,63,0.00,,,0.00,Wunderground v.1.15,2013-04-04 13:10:00,
2013-04-04 08:20:00,36.0,25.0,30.11,NW,313,0.0,0.0,64,0.00,,,0.00,Wunderground v.1.15,2013-04-04 13:20:00,
2013-04-04 08:30:00,36.9,26.2,30.11,NW,313,0.0,0.0,65,0.00,,,0.00,Wunderground v.1.15,2013-04-04 13:30:00,
2013-04-04 08:40:00,37.9,26.8,30.11,NW,316,0.0,0.0,64,0.00,,,0.00,Wunderground v.1.15,2013-04-04 13:40:00,
2013-04-04 08:45:00,38.5,27.4,30.11,NW,320,0.0,0.0,64,0.00,,,0.00,Wunderground v.1.15,2013-04-04 13:45:00,
2013-04-04 08:55:00,39.5,27.9,30.11,NW,316,0.0,0.0,63,0.00,,,0.00,Wunderground v.1.15,2013-04-04 13:55:00,
2013-04-04 09:05:00,40.2,27.8,30.10,NW,318,0.0,0.0,61,0.00,,,0.00,Wunderground v.1.15,2013-04-04 14:05:00,
2013-04-04 09:15:00,40.9,27.7,30.10,NNW,328,0.0,0.0,59,0.00,,,0.00,Wunderground v.1.15,2013-04-04 14:15:00,
2013-04-04 09:20:00,41.3,28.0,30.10,NW,309,0.0,0.0,59,0.00,,,0.00,Wunderground v.1.15,2013-04-04 14:20:00,
2013-04-04 09:30:00,42.1,28.8,30.10,NW,312,0.0,0.0,59,0.00,,,0.00,Wunderground v.1.15,2013-04-04 14:30:00,
2013-04-04 09:40:00,42.8,29.0,30.10,NW,311,0.0,0.0,58,0.00,,,0.00,Wunderground v.1.15,2013-04-04 14:40:00,
2013-04-04 09:45:00,43.2,29.4,30.10,WNW,302,0.0,0.0,58,0.00,,,0.00,Wunderground v.1.15,2013-04-04 14:45:00,
2013-04-04 09:55:00,43.9,29.2,30.10,NW,326,0.0,0.0,56,0.00,,,0.00,Wunderground v.1.15,2013-04-04 14:55:00,
2013-04-04 10:00:00,44.2,28.1,30.10,West,281,0.0,0.0,53,0.00,,,0.00,Wunderground v.1.15,2013-04-04 15:00:00,
2013-04-04 10:05:00,44.5,28.4,30.09,WNW,285,0.0,0.0,53,0.00,,,0.00,Wunderground v.1.15,2013-04-04 15:05:00,
2013-04-04 10:15:00,45.1,28.5,30.09,North,0,0.0,0.0,52,0.00,,,0.00,Wunderground v.1.15,2013-04-04 15:15:00,
2013-04-04 10:25:00,45.7,28.6,30.08,North,357,0.0,0.0,51,0.00,,,0.00,Wunderground v.1.15,2013-04-04 15:25:00,
2013-04-04 10:30:00,46.1,28.0,30.08,North,0,0.0,0.0,49,0.00,,,0.00,Wunderground v.1.15,2013-04-04 15:30:00,
2013-04-04 10:40:00,46.8,27.6,30.08,SW,219,0.0,0.0,47,0.00,,,0.00,Wunderground v.1.15,2013-04-04 15:40:00,
2013-04-04 10:50:00,47.7,27.9,30.08,West,281,0.0,0.0,46,0.00,,,0.00,Wunderground v.1.15,2013-04-04 15:50:00,
2013-04-04 11:00:00,48.3,27.9,30.08,North,353,0.0,0.0,45,0.00,,,0.00,Wunderground v.1.15,2013-04-04 16:00:00,
2013-04-04 11:05:00,48.6,28.2,30.07,West,270,0.0,0.0,45,0.00,,,0.00,Wunderground v.1.15,2013-04-04 16:05:00,
2013-04-04 11:15:00,49.1,28.1,30.07,NNW,339,0.0,0.0,44,0.00,,,0.00,Wunderground v.1.15,2013-04-04 16:15:00,
2013-04-04 11:25:00,49.8,28.7,30.07,WSW,250,0.0,0.0,44,0.00,,,0.00,Wunderground v.1.15,2013-04-04 16:25:00,
2013-04-04 11:30:00,49.8,28.2,30.07,WNW,284,0.0,0.0,43,0.00,,,0.00,Wunderground v.1.15,2013-04-04 16:30:00,
2013-04-04 11:40:00,50.1,27.9,30.06,West,267,0.0,0.0,42,0.00,,,0.00,Wunderground v.1.15,2013-04-04 16:40:00,
2013-04-04 11:45:00,50.2,28.0,30.06,West,268,0.0,0.0,42,0.00,,,0.00,Wunderground v.1.15,2013-04-04 16:45:00,
2013-04-04 11:55:00,51.1,28.2,30.06,NNW,335,0.0,0.0,41,0.00,,,0.00,Wunderground v.1.15,2013-04-04 16:55:00,
2013-04-04 12:05:00,52.0,29.6,30.05,West,271,0.0,0.0,42,0.00,,,0.00,Wunderground v.1.15,2013-04-04 17:05:00,
2013-04-04 12:15:00,52.2,29.8,30.05,West,267,0.0,0.0,42,0.00,,,0.00,Wunderground v.1.15,2013-04-04 17:15:00,
2013-04-04 12:20:00,52.6,30.1,30.06,WNW,284,0.0,0.0,42,0.00,,,0.00,Wunderground v.1.15,2013-04-04 17:20:00,
2013-04-04 12:30:00,53.1,30.6,30.06,West,277,0.0,0.0,42,0.00,,,0.00,Wunderground v.1.15,2013-04-04 17:30:00,
2013-04-04 12:35:00,53.3,30.8,30.05,WNW,294,0.0,0.0,42,0.00,,,0.00,Wunderground v.1.15,2013-04-04 17:35:00,
2013-04-04 12:40:00,53.3,30.8,30.05,NW,304,0.0,0.0,42,0.00,,,0.00,Wunderground v.1.15,2013-04-04 17:40:00,
2013-04-04 12:50:00,54.1,29.7,30.04,West,267,0.0,0.0,39,0.00,,,0.00,Wunderground v.1.15,2013-04-04 17:50:00,
2013-04-04 13:00:00,54.4,29.9,30.04,NNW,328,0.0,0.0,39,0.00,,,0.00,Wunderground v.1.15,2013-04-04 18:00:00,
2013-04-04 13:10:00,55.4,29.5,30.03,WNW,287,0.0,0.0,37,0.00,,,0.00,Wunderground v.1.15,2013-04-04 18:10:00,
2013-04-04 13:15:00,55.6,29.7,30.03,WSW,248,0.0,0.0,37,0.00,,,0.00,Wunderground v.1.15,2013-04-04 18:15:00,
2013-04-04 13:25:00,56.0,30.1,30.02,North,350,0.0,0.0,37,0.00,,,0.00,Wunderground v.1.15,2013-04-04 18:25:00,
2013-04-04 13:35:00,56.3,29.0,30.02,SW,234,0.0,0.0,35,0.00,,,0.00,Wunderground v.1.15,2013-04-04 18:35:00,
2013-04-04 13:40:00,56.3,29.0,30.02,WNW,285,0.0,0.0,35,0.00,,,0.00,Wunderground v.1.15,2013-04-04 18:40:00,
2013-04-04 13:50:00,57.3,29.9,30.01,SW,222,0.0,0.0,35,0.00,,,0.00,Wunderground v.1.15,2013-04-04 18:50:00,
2013-04-04 14:00:00,57.2,29.1,30.01,WNW,298,0.0,0.0,34,0.00,,,0.00,Wunderground v.1.15,2013-04-04 19:00:00,
2013-04-04 14:05:00,57.3,27.7,30.00,SW,230,0.0,0.0,32,0.00,,,0.00,Wunderground v.1.15,2013-04-04 19:05:00,
2013-04-04 14:15:00,58.4,27.9,30.00,WNW,295,0.0,0.0,31,0.00,,,0.00,Wunderground v.1.15,2013-04-04 19:15:00,
2013-04-04 14:25:00,58.7,27.3,29.99,South,186,0.0,0.0,30,0.00,,,0.00,Wunderground v.1.15,2013-04-04 19:25:00,
2013-04-04 14:30:00,59.0,27.6,29.99,WSW,243,0.0,0.0,30,0.00,,,0.00,Wunderground v.1.15,2013-04-04 19:30:00,
2013-04-04 14:40:00,59.3,28.6,29.99,SSW,205,0.0,0.0,31,0.00,,,0.00,Wunderground v.1.15,2013-04-04 19:40:00,
2013-04-04 14:45:00,60.1,28.5,29.99,NW,306,0.0,0.0,30,0.00,,,0.00,Wunderground v.1.15,2013-04-04 19:45:00,
2013-04-04 14:55:00,59.9,29.2,29.97,WNW,282,0.0,0.0,31,0.00,,,0.00,Wunderground v.1.15,2013-04-04 19:55:00,
2013-04-04 15:00:00,60.2,29.4,29.97,North,0,0.0,0.0,31,0.00,,,0.00,Wunderground v.1.15,2013-04-04 20:00:00,
2013-04-04 15:10:00,61.0,27.6,29.97,NW,315,0.0,0.0,28,0.00,,,0.00,Wunderground v.1.15,2013-04-04 20:10:00,
2013-04-04 15:20:00,61.2,28.7,29.96,WSW,241,0.0,0.0,29,0.00,,,0.00,Wunderground v.1.15,2013-04-04 20:20:00,
2013-04-04 15:25:00,62.1,28.6,29.96,West,280,0.0,0.0,28,0.00,,,0.00,Wunderground v.1.15,2013-04-04 20:25:00,
2013-04-04 15:35:00,61.3,27.9,29.96,NNE,24,0.0,0.0,28,0.00,,,0.00,Wunderground v.1.15,2013-04-04 20:35:00,
2013-04-04 15:40:00,61.2,26.9,29.96,North,359,0.0,0.0,27,0.00,,,0.00,Wunderground v.1.15,2013-04-04 20:40:00,
2013-04-04 15:50:00,61.8,27.4,29.95,NNW,328,0.0,0.0,27,0.00,,,0.00,Wunderground v.1.15,2013-04-04 20:50:00,
2013-04-04 16:00:00,62.0,28.5,29.95,SSW,208,0.0,0.0,28,0.00,,,0.00,Wunderground v.1.15,2013-04-04 21:00:00,
2013-04-04 16:10:00,62.4,28.8,29.94,NW,304,0.0,0.0,28,0.00,,,0.00,Wunderground v.1.15,2013-04-04 21:10:00,
2013-04-04 16:15:00,62.4,28.8,29.94,NNW,335,0.0,0.0,28,0.00,,,0.00,Wunderground v.1.15,2013-04-04 21:15:00,
2013-04-04 16:25:00,63.1,29.4,29.94,WSW,254,0.0,0.0,28,0.00,,,0.00,Wunderground v.1.15,2013-04-04 21:25:00,
2013-04-04 16:35:00,63.2,28.6,29.93,West,267,0.0,0.0,27,0.00,,,0.00,Wunderground v.1.15,2013-04-04 21:35:00,
2013-04-04 16:40:00,63.4,29.7,29.93,North,353,0.0,0.0,28,0.00,,,0.00,Wunderground v.1.15,2013-04-04 21:40:00,
2013-04-04 16:45:00,63.7,29.1,29.93,NNW,343,0.0,0.0,27,0.00,,,0.00,Wunderground v.1.15,2013-04-04 21:45:00,
2013-04-04 16:55:00,63.9,30.1,29.93,WNW,296,0.0,0.0,28,0.00,,,0.00,Wunderground v.1.15,2013-04-04 21:55:00,
2013-04-04 17:00:00,63.9,28.3,29.93,WNW,294,0.0,0.0,26,0.00,,,0.00,Wunderground v.1.15,2013-04-04 22:00:00,
2013-04-04 17:10:00,63.5,29.8,29.93,NNW,330,0.0,0.0,28,0.00,,,0.00,Wunderground v.1.15,2013-04-04 22:10:00,
2013-04-04 17:20:00,63.7,29.1,29.93,NW,315,0.0,0.0,27,0.00,,,0.00,Wunderground v.1.15,2013-04-04 22:20:00,
2013-04-04 17:25:00,63.5,28.9,29.93,NNW,342,0.0,0.0,27,0.00,,,0.00,Wunderground v.1.15,2013-04-04 22:25:00,
2013-04-04 17:35:00,63.7,30.0,29.92,NW,319,0.0,0.0,28,0.00,,,0.00,Wunderground v.1.15,2013-04-04 22:35:00,
2013-04-04 17:40:00,63.7,30.0,29.92,NNW,342,0.0,0.0,28,0.00,,,0.00,Wunderground v.1.15,2013-04-04 22:40:00,
2013-04-04 17:45:00,63.9,30.1,29.92,NW,323,0.0,0.0,28,0.00,,,0.00,Wunderground v.1.15,2013-04-04 22:45:00,
2013-04-04 17:55:00,63.7,30.0,29.92,WNW,295,0.0,0.0,28,0.00,,,0.00,Wunderground v.1.15,2013-04-04 22:55:00,
2013-04-04 18:05:00,63.7,30.0,29.92,North,352,0.0,0.0,28,0.00,,,0.00,Wunderground v.1.15,2013-04-04 23:05:00,
2013-04-04 18:10:00,63.9,29.2,29.92,NW,316,0.0,0.0,27,0.00,,,0.00,Wunderground v.1.15,2013-04-04 23:10:00,
2013-04-04 18:20:00,64.2,30.4,29.92,West,278,0.0,0.0,28,0.00,,,0.00,Wunderground v.1.15,2013-04-04 23:20:00,
2013-04-04 18:25:00,64.0,30.2,29.92,North,354,0.0,0.0,28,0.00,,,0.00,Wunderground v.1.15,2013-04-04 23:25:00,
2013-04-04 18:35:00,63.7,30.0,29.92,NNE,21,0.0,0.0,28,0.00,,,0.00,Wunderground v.1.15,2013-04-04 23:35:00,
2013-04-04 18:40:00,63.7,30.0,29.92,NW,325,0.0,0.0,28,0.00,,,0.00,Wunderground v.1.15,2013-04-04 23:40:00,
2013-04-04 18:50:00,63.5,29.8,29.93,NW,308,0.0,0.0,28,0.00,,,0.00,Wunderground v.1.15,2013-04-04 23:50:00,
2013-04-04 19:00:00,63.4,29.7,29.93,NNW,344,0.0,0.0,28,0.00,,,0.00,Wunderground v.1.15,2013-04-05 00:00:00,
2013-04-04 19:10:00,62.9,29.3,29.93,NNW,337,0.0,0.0,28,0.00,,,0.00,Wunderground v.1.15,2013-04-05 00:10:00,
2013-04-04 19:15:00,62.7,30.0,29.93,NNW,336,0.0,0.0,29,0.00,,,0.00,Wunderground v.1.15,2013-04-05 00:15:00,
2013-04-04 19:25:00,62.3,29.6,29.93,NNW,335,0.0,0.0,29,0.00,,,0.00,Wunderground v.1.15,2013-04-05 00:25:00,
2013-04-04 19:35:00,61.6,29.8,29.93,NNW,336,0.0,0.0,30,0.00,,,0.00,Wunderground v.1.15,2013-04-05 00:35:00,
2013-04-04 19:45:00,60.1,30.1,29.93,NNW,336,0.0,0.0,32,0.00,,,0.00,Wunderground v.1.15,2013-04-05 00:45:00,
2013-04-04 19:55:00,59.0,29.9,29.93,NNW,336,0.0,0.0,33,0.00,,,0.00,Wunderground v.1.15,2013-04-05 00:55:00,
2013-04-04 20:00:00,58.6,30.3,29.93,NNW,336,0.0,0.0,34,0.00,,,0.00,Wunderground v.1.15,2013-04-05 01:00:00,
2013-04-04 20:10:00,57.8,30.3,29.94,NNW,337,0.0,0.0,35,0.00,,,0.00,Wunderground v.1.15,2013-04-05 01:10:00,
2013-04-04 20:20:00,57.2,30.5,29.94,NNW,337,0.0,0.0,36,0.00,,,0.00,Wunderground v.1.15,2013-04-05 01:20:00,
2013-04-04 20:30:00,57.0,30.3,29.94,NNW,337,0.0,0.0,36,0.00,,,0.00,Wunderground v.1.15,2013-04-05 01:30:00,
2013-04-04 20:40:00,56.7,30.7,29.94,NNW,337,0.0,0.0,37,0.00,,,0.00,Wunderground v.1.15,2013-04-05 01:40:00,
2013-04-04 20:50:00,56.6,30.6,29.94,NNW,337,0.0,0.0,37,0.00,,,0.00,Wunderground v.1.15,2013-04-05 01:50:00,
2013-04-04 21:00:00,56.5,31.2,29.94,NNW,337,0.0,0.0,38,0.00,,,0.00,Wunderground v.1.15,2013-04-05 02:00:00,
2013-04-04 21:05:00,56.3,31.0,29.95,NNW,337,0.0,0.0,38,0.00,,,0.00,Wunderground v.1.15,2013-04-05 02:05:00,
2013-04-04 21:15:00,56.3,31.0,29.95,NNW,337,0.0,0.0,38,0.00,,,0.00,Wunderground v.1.15,2013-04-05 02:15:00,
2013-04-04 21:25:00,56.7,31.4,29.95,NNW,337,0.0,0.0,38,0.00,,,0.00,Wunderground v.1.15,2013-04-05 02:25:00,
2013-04-04 21:30:00,56.6,31.3,29.95,NNW,337,0.0,0.0,38,0.00,,,0.00,Wunderground v.1.15,2013-04-05 02:30:00,
2013-04-04 21:35:00,56.5,31.2,29.95,NNW,337,0.0,0.0,38,0.00,,,0.00,Wunderground v.1.15,2013-04-05 02:35:00,
2013-04-04 21:45:00,56.0,30.7,29.95,NNW,337,0.0,0.0,38,0.00,,,0.00,Wunderground v.1.15,2013-04-05 02:45:00,
2013-04-04 21:55:00,56.0,30.7,29.96,NNW,337,0.0,0.0,38,0.00,,,0.00,Wunderground v.1.15,2013-04-05 02:55:00,
2013-04-04 22:00:00,56.2,30.9,29.96,NNW,337,0.0,0.0,38,0.00,,,0.00,Wunderground v.1.15,2013-04-05 03:00:00,
2013-04-04 22:10:00,56.3,31.0,29.96,NNW,337,0.0,0.0,38,0.00,,,0.00,Wunderground v.1.15,2013-04-05 03:10:00,
2013-04-04 22:20:00,56.3,31.0,29.96,NNW,337,0.0,0.0,38,0.00,,,0.00,Wunderground v.1.15,2013-04-05 03:20:00,
2013-04-04 22:25:00,56.2,30.9,29.96,NNW,337,0.0,0.0,38,0.00,,,0.00,Wunderground v.1.15,2013-04-05 03:25:00,
2013-04-04 22:35:00,55.7,31.1,29.96,NNW,337,0.0,0.0,39,0.00,,,0.00,Wunderground v.1.15,2013-04-05 03:35:00,
2013-04-04 22:45:00,54.4,31.2,29.96,NNW,337,0.0,0.0,41,0.00,,,0.00,Wunderground v.1.15,2013-04-05 03:45:00,
2013-04-04 22:55:00,54.1,30.9,29.96,NNW,337,0.0,0.0,41,0.00,,,0.00,Wunderground v.1.15,2013-04-05 03:55:00,
2013-04-04 23:00:00,54.1,31.5,29.96,NNW,337,0.0,0.0,42,0.00,,,0.00,Wunderground v.1.15,2013-04-05 04:00:00,
2013-04-04 23:05:00,53.5,31.0,29.97,WNW,295,0.0,0.0,42,0.00,,,0.00,Wunderground v.1.15,2013-04-05 04:05:00,
2013-04-04 23:10:00,52.8,30.9,29.97,West,278,0.0,0.0,43,0.00,,,0.00,Wunderground v.1.15,2013-04-05 04:10:00,
2013-04-04 23:15:00,52.2,30.9,29.97,West,265,0.0,0.0,44,0.00,,,0.00,Wunderground v.1.15,2013-04-05 04:15:00,
2013-04-04 23:25:00,51.9,31.2,29.96,West,263,0.0,0.0,45,0.00,,,0.00,Wunderground v.1.15,2013-04-05 04:25:00,
2013-04-04 23:30:00,51.3,31.2,29.96,West,261,0.0,0.0,46,0.00,,,0.00,Wunderground v.1.15,2013-04-05 04:30:00,
2013-04-04 23:40:00,48.9,30.6,29.97,North,354,0.0,0.0,49,0.00,,,0.00,Wunderground v.1.15,2013-04-05 04:40:00,
2013-04-04 23:50:00,48.5,31.2,29.98,NW,305,0.0,0.0,51,0.00,,,0.00,Wunderground v.1.15,2013-04-05 04:50:00,
2013-04-04 23:55:00,47.3,30.5,29.98,North,0,0.0,0.0,52,0.00,,,0.00,Wunderground v.1.15,2013-04-05 04:55:00,